Regional Weather Roundup
Issued by NWS Wakefield, VA

Current Version | Previous Version | Text Only | Print | Product List | Glossary On
Versions: 1 2 3 4 5 6 7 8 9 10 11 12 13 14 15 16 17 18 19 20 21 22 23 24 25 26 27
000
ASUS41 KAKQ 292315
RWRAKQ

REGIONAL WEATHER ROUNDUP
NATIONAL WEATHER SERVICE WAKEFIELD VA
700 PM EDT WED MAR 29 2017

Note: "fair" indicates few or no clouds below 12,000 feet with no
significant weather and/or obstructions to visibility. * = Denotes
station may not report precipitation (e.g., rain,snow,etc.),
thunder or fog.

VAZ042-051-052>054-056-300000-
NORTHERN VIRGINIA

CITY           SKY/WX    TMP DP  RH WIND       PRES   REMARKS
WASH NATIONAL  PTCLDY    63  40  42 N12       30.12R
DULLES         PTCLDY    62  35  36 N10       30.12R
FORT BELVOIR   CLEAR     65  35  33 NW10      30.11R
QUANTICO       PTCLDY    65  36  34 N12       30.12R
FREDERICKSBRG* CLEAR     65  37  35 NE6       30.10R
STAFFORD*      CLEAR     62  33  33 N9        30.15R
WARRENTON      CLEAR     64  32  29 N10       30.10R
CULPEPER*      CLEAR     64  39  38 N6        30.11R
MANASSAS*      CLEAR     62  37  39 NE9       30.12R
LEESBURG*      CLEAR     63  39  42 N6        30.13R
WINCHESTER     CLEAR     59  36  41 E3        30.11R
FRONT ROYAL*   CLEAR     61  37  41 NE8       30.10R
LURAY*         CLEAR     64  37  36 E3        30.10R
$$

VAZ048-049-060>072-079>083-300000-
CENTRAL AND SOUTH CENTRAL VIRGINIA

CITY           SKY/WX    TMP DP  RH WIND       PRES   REMARKS
RICHMOND       MOCLDY    65  43  44 NE8       30.09R
CHESTERFIELD*  FAIR     N/A N/A N/A N7        30.10R
PETERSBURG*    CLEAR     65  44  48 NE5       30.10R
HANOVER        CLEAR     66  39  37 N3        30.11R
TAPPAHANNOCK*  CLEAR     65  27  24 CALM      30.11R
QUINTON*       FAIR      65  40  38 CALM      30.09R
CHARLOTTSVILLE MOCLDY    66  39  37 NE8       30.09R
GORDONSVILLE*  CLEAR     64  38  37 NE7       30.09R
ORANGE*        CLEAR     63  37  39 NE3       30.11R
LOUISA*        CLEAR     68  39  34 NE5       30.09R
BUMPASS*       FAIR      65  37  35 N3        30.10R
FARMVILLE*     CLEAR     70  47  44 E6        30.07R
CREWE*         FAIR      67  47  49 CALM      30.08R
FORT PICKETT*  FAIR      66  39  37 NE5       30.09R
CHASE CITY*    FAIR      69  46  43 CALM      30.07S
CLARKSVILLE*   FAIR      68  50  52 E3        30.07R
SOUTH HILL*    PTCLDY    66  51  57 CALM      30.13R
LAWRENCEVILLE* FAIR      67  48  51 CALM      30.09R
EMPORIA*       CLOUDY    64  52  63 CALM      30.11R
$$

VAZ088>098-300000-
SOUTHEAST VIRGINIA

CITY           SKY/WX    TMP DP  RH WIND       PRES   REMARKS
NORFOLK        CLEAR     56  46  69 E7        30.11R
VIRGINIA BEACH PTCLDY    50  43  77 E8        30.12R
NORFOLK NAVAL  PTCLDY    56  45  66 NE5       30.13R
WEST POINT*    CLEAR     61  42  50 E8        30.12R
SALUDA*        FAIR      57  43  59 E3        30.11R
NEWPORT NEWS   CLEAR     55  41  59 E9        30.12R
LANGLEY AFB    CLEAR     55  46  70 E3        30.11R
FORT EUSTIS    CLEAR     60  41  50 E7        30.09R
WILLIAMSBURG*  CLEAR     61  46  59 E5        30.12R
HR EXEC AP*    FAIR      59  43  55 NE5       30.10R
FRANKLIN*      CLEAR     60  47  63 NE8       30.11R
US460-WAKEFLD  CLEAR     60  47  61 VRB3      30.10R
$$

VAZ020-022-025-037-045-300000-
WEST CENTRAL AND SOUTHWEST VIRGINIA

CITY           SKY/WX    TMP DP  RH WIND       PRES   REMARKS
STAUNTON*      PTCLDY    63  39  41 NE5       30.11R
WAYNESBORO*    CLOUDY    63  40  43 N3        30.10R
HOT SPRINGS VA CLEAR     61  32  33 CALM      30.13R
LYNCHBURG      MOCLDY    69  47  45 SE6       30.06S
DANVILLE       CLEAR     69  52  54 CALM      30.04F
SOUTH BOSTON*  FAIR      71  46  39 CALM      30.06S
MARTINSVILLE   CLEAR     69  49  48 CALM      30.06R
ROANOKE        PTCLDY    71  47  42 SE8       30.05S
BLACKSBURG     CLEAR     70  42  37 CALM      30.09R
DUBLIN*        MOCLDY    69  44  40 NE3       30.07R
MARION*        CLEAR     71  40  33 SW5       30.08S
HILLSVILLE*    PTCLDY    65  49  56 S6        30.08R
RICHLANDS*     FAIR      67  48  50 NW3       30.08R
WISE*          CLEAR     64  46  52 N6        30.10R
ABINGDON*      CLEAR     73  46  38 CALM      30.05R
$$

MDZ021>025-VAZ099-100-300000-
SOUTHERN MARYLAND AND THE DELMARVA PENINSULA

CITY           SKY/WX    TMP DP  RH WIND       PRES   REMARKS
PATUXENT RIVER PTCLDY    58  39  49 N6        30.12R
BAY BRIDGE APT CLEAR     57  37  47 N9        30.13R
LEONARDTOWN    CLEAR     55  34  44 CALM      30.14R
DOVER          CLEAR     59  38  45 NW12      30.09R
GEORGETOWN     CLEAR     61  33  35 NW6       30.10R
EASTON         NOT AVBL
CAMBRIDGE      CLEAR     59  32  36 N9        30.11R
SALISBURY      CLEAR     60  35  39 N6        30.10R
OCEAN CITY     CLEAR     48  41  76 SW6       30.11R
WALLOPS ISLAND CLEAR     49  43  80 SE7       30.12R
ACCOMACK*      PTCLDY    51  40  65 SE7       30.12R
$$

NCZ012>017-030>032-300000-
NORTH CENTRAL AND EASTERN NORTH CAROLINA

CITY           SKY/WX    TMP DP  RH WIND       PRES   REMARKS
ROANOKE RAPIDS CLOUDY    66  54  63 NE3       30.08R
RALEIGH        MOCLDY    70  50  49 CALM      30.07R
ELIZABETH CITY PTCLDY    53  46  77 E8        30.11R
AHOSKIE*         N/A     62  52  70 SE5       30.10R
EDENTON*       PTCLDY    55  49  79 E9        30.12R
CURRITUCK*     PTCLDY    52  46  79 E5        30.13R
KILL DEVIL HLS NOT AVBL
MANTEO         PTCLDY    49  46  87 E9        30.12R
CAPE HATTERAS  CLEAR     54  46  74 VRB7      30.10R
TARBORO*       NOT AVBL
GOLDSBORO      CLEAR     68  55  62 E7        30.05R
WASHINGTON     CLEAR     62  53  70 E7        30.08R
GREENVILLE     CLEAR     66  54  63 E5        30.09R
NEW BERN       CLOUDY    62  55  77 SE8       30.09R
WILMINGTON     CLEAR     63  55  75 E10       30.07R
$$

VAZ048-300000-
ELSEWHERE

CITY           SKY/WX    TMP DP  RH WIND       PRES   REMARKS
HARRISBURG PA  PTCLDY    56  30  37 N3        30.15R
BALTIMORE      PTCLDY    60  31  33 N9        30.12R
ANNAPOLIS      CLEAR     60  34  37 N14       30.12R
ANDREWS AFB    CLEAR     59  36  42 N10       30.11R
PHILADELPHIA   CLEAR     57  28  33 N16G24    30.12R
HENDERSON NC   PTCLDY    65  47  53 NE3       30.08R
GREENSBORO     PTCLDY    72  50  45 E5        30.03F
ROCKY MOUNT    CLOUDY    68  54  60 CALM      30.07R
$$

VAZ100-300000-
MARINE

STATION/POSITION TIME  TEMP    WIND        PRES    WAVE   SWELL
                       AIR SEA DIR/SP/G            HT/PER HT/PER
                 (UTC) (F)     (DEG/KT/KT) (MB)    (FT/S) (FT/S)
CAPE MAY NJ      2236   53 47  310/ 11/ 13 1018.5R
LEWES DE         2242   52 49  350/  8/ 10 1018.9R
OCEAN-CITY-INLET 2236   47 51  210/  6/  8 1019.8R
WACHAPREAGUE VA  2242   50 61  110/  4/  5 1019.7R
THOMAS POINT MD  2300   57 48   30/ 12/ 14   N/A
GOOSES REEF MD   2250   57     100/  2/  4 1020.4R
COVE POINT MD    2236   54      40/ 10/ 12 1020.1R
SOLOMONS ISLAND  2236   59 49   10/  7/  9   N/A
BISHOPS HEAD MD  2236   61 58   10/  6/  9 1019.6R
PINEY POINT MD   2224          170/  2/  4   N/A
POTOMAC MD       2250   57     110/  4/  4 1018.8R
CAMBRIDGE MD     2236   58 51   10/ 11/ 13 1018.6R
LEWISETTA VA     2242   57 56  110/  6/  6 1019.2R
RAPPAHANNOCK LGT 2224           60/  5/  6 1020.0
STINGRAY PT      2250   54      60/  2/  4 1020.3R
YORK RVR RNG VA  2242   51     150/  7/  8 1019.2R
YORKTOWN VA      2242   54 52   90/  5/  9 1019.5R
JAMESTOWN VA     2250   59     110/  8/ 10   N/A
DOMINION TERM VA 2236   53      70/  6/  9 1019.7R
KIPTOPEKE VA     2236      53  140/  7/  9   N/A
CAPE HENRY VA    2236   49     130/  9/ 11   N/A
WILLOUBY STN VA  2236   52      80/  7/  8 1020.5R
S CRANEY ISL VA  2236   57      50/  5/  6 1019.1R
CAPE HENRY BUOY  2242      51                N/A     4/ 5   2/11
CAPE CHARLES BUO 2221      51                N/A     3/ 9   2/11
OFFSHORE WE BUOY 2251      50                N/A     4/ 6   2/11
64NM E OF VA BCH 2250   50 50   50/ 10/ 12 1019.1R   5/ 7   5/ 7
DUCK PIER NC     2236   49 51   70/ 12/ 14 1019.0F
44100 DUCK FRF   2235      51                N/A     5/10   2/11
44056 DUCK FRF   2230      51                N/A     4/ 9   2/11
OREGON INLET NC  2236   49 57   30/  9/ 12 1019.2F
HATTERAS NC      2242   54 62   30/ 10/ 16 1018.9R
DIAMOND SHLS NC  2250   58 74   20/ 19/ 25 1018.7R   6/10   3/10
CAPE LOOKOUT NC  2300   59      50/ 19/ 21 1018.4R
$$




USA.gov is the U.S. government's official web portal to all federal, state and local government web resources and services.